FW4655 Weather Reports


Display with metric or nautical units.
time (UTC)temp
F
wind
direction
speed
MPH
gust
MPH
rain 1hr
in
rain 24hr
in
rain mn
in
humidity
%
barometer
mb
20260903160021 55 237 0.0 3.0 0.07 0.45 0.17 88 1011.4
20260903155511 55 236 1.0 5.0 0.07 0.45 0.17 87 1011.5
20260903155012 55 290 0.0 5.0 0.06 0.44 0.16 87 1011.6
20260903154526 55 227 0.0 4.0 0.05 0.43 0.15 86 1011.5
20260903154016 55 295 1.0 4.0 0.03 0.40 0.12 86 1011.6
20260903153519 55 299 1.0 8.0 0.03 0.40 0.12 86 1011.6
20260903153030 55 277 0.0 8.0 0.04 0.40 0.12 86 1011.6
20260903152513 55 278 2.0 7.0 0.03 0.39 0.11 86 1011.6
20260903152014 55 281 0.0 6.0 0.03 0.39 0.11 87 1011.4
20260903151510 55 247 1.0 6.0 0.04 0.39 0.11 87 1011.3
20260903151009 55 302 0.0 4.0 0.04 0.39 0.11 86 1011.4
20260903150508 55 264 0.0 8.0 0.04 0.39 0.11 86 1011.4
20260903150016 55 295 1.0 8.0 0.03 0.38 0.10 86 1011.3
20260903145503 55 264 2.0 7.0 0.03 0.38 0.10 86 1011.3
20260903145003 55 302 2.0 7.0 0.03 0.38 0.10 86 1011.2
20260903144507 55 276 1.0 7.0 0.03 0.38 0.10 86 1011.3
20260903144004 55 229 0.0 8.0 0.02 0.37 0.09 86 1011.2
20260903143504 55 323 0.0 8.0 0.03 0.37 0.09 86 1011.2
20260903143004 55 264 1.0 8.0 0.03 0.36 0.08 85 1011.2
20260903142504 55 295 1.0 7.0 0.04 0.36 0.08 85 1011.1
20260903142009 55 309 1.0 6.0 0.04 0.36 0.08 85 1011.0
20260903141507 55 297 0.0 3.0 0.03 0.35 0.07 85 1010.9
20260903141006 55 220 0.0 3.0 0.03 0.35 0.07 85 1010.9
20260903140507 55 229 0.0 2.0 0.03 0.35 0.07 86 1010.9
20260903140012 55 255 0.0 3.0 0.04 0.35 0.07 85 1010.9
20260903135508 55 251 0.0 3.0 0.04 0.35 0.07 85 1010.8
20260903135009 55 238 0.0 1.0 0.04 0.35 0.07 85 1010.9
20260903134517 55 227 0.0 5.0 0.04 0.35 0.07 84 1010.9
20260903134012 56 283 0.0 7.0 0.04 0.35 0.07 84 1010.9
20260903133503 56 289 0.0 7.0 0.03 0.34 0.06 83 1010.8
20260903133005 56 236 2.0 7.0 0.02 0.33 0.05 82 1010.7
20260903132502 56 212 0.0 7.0 0.01 0.32 0.04 82 1010.7
20260903132003 56 304 2.0 10.0 0.01 0.32 0.04 82 1010.7
20260903131504 56 296 1.0 10.0 0.01 0.32 0.04 82 1010.5
20260903131004 56 226 0.0 5.0 0.01 0.32 0.04 82 1010.5
20260903130504 56 292 0.0 12.0 0.01 0.32 0.04 81 1010.6
20260903130007 56 221 1.0 12.0 0.00 0.31 0.03 81 1010.6
20260903125504 56 334 1.0 4.0 0.00 0.31 0.03 80 1010.7
20260903125008 56 277 0.0 4.0 0.00 0.31 0.03 80 1010.6
20260903124512 56 236 1.0 8.0 0.00 0.31 0.03 80 1010.6
20260903124009 56 235 2.0 10.0 0.00 0.31 0.03 80 1010.6
20260903123518 56 250 3.0 10.0 0.00 0.31 0.03 80 1010.6
20260903123019 56 245 4.0 10.0 0.00 0.31 0.03 81 1010.6
20260903122517 56 238 1.0 8.0 0.00 0.31 0.03 81 1010.6
20260903122011 56 220 0.0 8.0 0.00 0.31 0.03 81 1010.6
20260903121514 56 241 0.0 6.0 0.00 0.31 0.03 82 1010.6
20260903121004 55 219 0.0 5.0 0.00 0.31 0.03 82 1010.7
20260903120503 55 234 0.0 7.0 0.00 0.31 0.03 82 1010.7
20260903120005 55 182 1.0 7.0 0.00 0.31 0.03 82 1010.8
20260903115504 56 314 0.0 10.0 0.00 0.31 0.03 81 1010.9
20260903115004 55 233 2.0 10.0 0.00 0.31 0.03 81 1010.8
20260903114508 55 246 0.0 7.0 0.00 0.31 0.03 82 1010.8
20260903114008 55 167 2.0 7.0 0.00 0.31 0.03 82 1010.7
20260903113511 55 237 0.0 5.0 0.00 0.31 0.03 82 1010.7
20260903113014 55 203 1.0 6.0 0.00 0.31 0.03 82 1010.7
20260903112510 56 232 1.0 7.0 0.00 0.31 0.03 82 1010.8
20260903112010 56 286 1.0 7.0 0.00 0.31 0.03 82 1010.8
20260903111517 56 304 1.0 6.0 0.00 0.31 0.03 82 1010.8
20260903111013 56 211 1.0 8.0 0.00 0.31 0.03 82 1010.8
20260903110515 56 287 1.0 8.0 0.00 0.31 0.03 83 1010.8
20260903110028 55 271 0.0 8.0 0.00 0.31 0.03 84 1010.8
20260903105504 56 234 0.0 8.0 0.00 0.31 0.03 84 1010.8
20260903105003 56 194 1.0 7.0 0.00 0.31 0.03 84 1010.8
20260903104506 56 293 0.0 7.0 0.00 0.31 0.03 84 1010.8
20260903104005 56 301 0.0 4.0 0.00 0.31 0.03 84 1010.8
20260903103504 56 269 1.0 9.0 0.00 0.31 0.03 83 1010.9
20260903103010 56 221 1.0 9.0 0.00 0.31 0.03 83 1010.9
20260903102508 56 309 2.0 11.0 0.00 0.31 0.03 83 1010.9
20260903102012 56 292 1.0 11.0 0.00 0.31 0.03 83 1010.8
20260903101516 56 298 0.0 7.0 0.00 0.31 0.03 84 1010.8
20260903101012 56 296 1.0 7.0 0.00 0.31 0.03 84 1010.7
20260903100511 56 238 2.0 6.0 0.00 0.31 0.03 84 1010.7
20260903100026 56 229 1.0 6.0 0.00 0.31 0.03 84 1010.6
20260903095514 56 209 1.0 6.0 0.00 0.31 0.03 84 1010.7
20260903095014 56 294 2.0 9.0 0.00 0.31 0.03 84 1010.7
20260903094526 56 296 1.0 9.0 0.00 0.31 0.03 85 1010.7
20260903094017 56 248 0.0 5.0 0.00 0.31 0.03 85 1010.7
20260903093505 56 238 1.0 6.0 0.00 0.31 0.03 85 1010.8
20260903093011 56 266 1.0 6.0 0.00 0.31 0.03 86 1010.8
20260903092510 56 272 0.0 4.0 0.00 0.31 0.03 86 1010.8
20260903092006 56 205 0.0 3.0 0.00 0.31 0.03 86 1010.8
20260903091516 56 278 0.0 4.0 0.00 0.31 0.03 86 1010.8
20260903091008 56 262 1.0 4.0 0.00 0.31 0.03 86 1010.9
20260903090510 56 290 1.0 4.0 0.00 0.31 0.03 87 1010.9
20260903090016 56 238 0.0 4.0 0.00 0.31 0.03 87 1010.8
20260903085512 56 252 1.0 3.0 0.00 0.31 0.03 87 1010.9
20260903085011 56 276 0.0 4.0 0.00 0.31 0.03 87 1010.9
20260903084523 56 259 0.0 4.0 0.00 0.31 0.03 87 1011.0
20260903084016 56 252 1.0 5.0 0.01 0.31 0.03 87 1011.0
20260903083514 56 285 2.0 5.0 0.02 0.31 0.03 87 1011.0
20260903083026 56 269 0.0 6.0 0.02 0.31 0.03 88 1011.0
20260903082513 56 283 0.0 6.0 0.02 0.31 0.03 87 1011.0
20260903082020 56 302 1.0 5.0 0.02 0.31 0.03 88 1011.1
20260903081508 56 205 0.0 4.0 0.03 0.31 0.03 88 1011.0
20260903081004 56 297 1.0 4.0 0.03 0.31 0.03 88 1011.0
20260903080510 56 305 0.0 2.0 0.03 0.31 0.03 88 1011.1
20260903080014 56 156 0.0 1.0 0.03 0.31 0.03 88 1011.1
20260903075510 56 299 0.0 3.0 0.03 0.31 0.03 88 1011.1
20260903075014 56 194 0.0 6.0 0.03 0.31 0.03 88 1011.1
20260903074517 56 290 0.0 7.0 0.03 0.31 0.03 87 1011.2
20260903074014 56 305 2.0 7.0 0.02 0.30 0.02 86 1011.2
20260903073511 56 238 2.0 5.0 0.01 0.29 0.01 86 1011.1
20260903073027 56 262 3.0 5.0 0.01 0.29 0.01 86 1010.9
20260903072513 56 264 1.0 8.0 0.01 0.29 0.01 86 1010.9
20260903072014 56 242 0.0 8.0 0.01 0.29 0.01 87 1010.9
20260903071530 56 302 1.0 6.0 0.00 0.28 0.00 87 1010.8
20260903071014 56 286 2.0 6.0 0.00 0.28 0.00 87 1010.8
20260903070514 56 211 2.0 6.0 0.00 0.28 0.00 87 1010.8
20260903070032 56 205 1.0 10.0 0.00 0.28 0.00 87 1010.8
20260903065520 56 269 1.0 10.0 0.00 0.28 0.28 87 1010.8
20260903065011 56 277 0.0 8.0 0.00 0.28 0.28 87 1010.8
20260903064514 56 272 2.0 8.0 0.00 0.28 0.28 86 1010.9
20260903064010 56 316 3.0 8.0 0.00 0.28 0.28 86 1010.9
20260903063513 56 240 1.0 8.0 0.00 0.28 0.28 86 1010.9
20260903063021 57 319 2.0 8.0 0.00 0.28 0.28 85 1010.8
20260903062513 57 114 2.0 6.0 0.00 0.28 0.28 85 1010.9
20260903062014 57 287 0.0 4.0 0.00 0.28 0.28 85 1010.9
20260903061503 57 298 0.0 4.0 0.00 0.28 0.28 84 1010.9
20260903061005 57 290 0.0 12.0 0.00 0.28 0.28 84 1010.8
20260903060503 57 133 2.0 12.0 0.00 0.28 0.28 84 1010.7
20260903060006 57 300 2.0 8.0 0.00 0.28 0.28 84 1010.7
20260903055503 57 297 3.0 8.0 0.00 0.28 0.28 84 1010.7
20260903055007 57 302 1.0 7.0 0.00 0.28 0.28 85 1010.7
20260903054517 57 274 2.0 6.0 0.00 0.28 0.28 85 1010.6
20260903054008 57 285 2.0 6.0 0.00 0.28 0.28 85 1010.7
20260903053508 57 278 1.0 5.0 0.00 0.28 0.28 85 1010.8
20260903053017 57 271 1.0 5.0 0.00 0.28 0.28 85 1010.8
20260903052512 57 293 1.0 5.0 0.00 0.28 0.28 86 1010.9
20260903052011 57 298 3.0 6.0 0.00 0.28 0.28 86 1010.9
20260903051504 57 163 1.0 6.0 0.00 0.28 0.28 86 1010.8
20260903051003 57 258 1.0 5.0 0.00 0.28 0.28 86 1010.8
20260903050503 57 232 2.0 5.0 0.00 0.28 0.28 86 1010.8
20260903050007 57 259 1.0 4.0 0.00 0.28 0.28 86 1010.8
20260903045504 57 298 1.0 3.0 0.00 0.28 0.28 86 1010.8
20260903045003 57 264 0.0 2.0 0.00 0.28 0.28 86 1010.8
20260903044508 57 259 0.0 2.0 0.00 0.28 0.28 86 1010.8
20260903044009 57 219 0.0 3.0 0.00 0.28 0.28 86 1010.7
20260903043510 57 292 1.0 6.0 0.00 0.28 0.28 86 1010.6
20260903043014 57 274 2.0 6.0 0.00 0.28 0.28 86 1010.6
20260903042511 57 321 1.0 6.0 0.00 0.28 0.28 85 1010.5
20260903042013 57 300 2.0 5.0 0.00 0.28 0.28 85 1010.4
20260903041530 57 288 2.0 5.0 0.00 0.28 0.28 85 1010.4
20260903041011 57 286 2.0 5.0 0.00 0.28 0.28 86 1010.4
20260903040511 57 298 1.0 7.0 0.00 0.28 0.28 86 1010.3
20260903040025 57 255 1.0 7.0 0.00 0.28 0.28 87 1010.2
20260903035519 57 302 0.0 6.0 0.00 0.28 0.28 87 1010.3
20260903035006 58 305 0.0 8.0 0.00 0.28 0.28 87 1010.0
20260903034504 58 281 0.0 8.0 0.00 0.28 0.28 87 1009.8
20260903034004 58 264 1.0 6.0 0.00 0.28 0.28 87 1009.8
20260903033506 58 235 2.0 5.0 0.00 0.28 0.28 87 1009.8
20260903033014 58 238 1.0 9.0 0.00 0.28 0.28 87 1009.8
20260903032506 58 294 2.0 9.0 0.00 0.28 0.28 88 1009.7
20260903032008 58 264 0.0 8.0 0.00 0.28 0.28 87 1009.6
20260903031522 58 306 1.0 8.0 0.00 0.28 0.28 87 1009.6
20260903031011 58 285 1.0 7.0 0.00 0.28 0.28 88 1009.5
20260903030512 58 279 2.0 7.0 0.00 0.28 0.28 87 1009.6
20260903030023 59 297 1.0 3.0 0.00 0.28 0.28 87 1009.5
20260903025517 59 298 1.0 4.0 0.00 0.28 0.28 87 1009.5
20260903025015 59 283 1.0 4.0 0.00 0.28 0.28 86 1009.4
20260903024524 59 293 1.0 5.0 0.00 0.28 0.28 86 1009.2
20260903024017 59 238 1.0 6.0 0.00 0.28 0.28 86 1009.3
20260903023516 59 246 2.0 6.0 0.00 0.28 0.28 87 1009.2
20260903023006 59 349 0.0 7.0 0.00 0.28 0.28 87 1009.2
20260903022506 59 124 1.0 7.0 0.00 0.28 0.28 87 1009.3
20260903022007 59 286 1.0 7.0 0.00 0.28 0.28 87 1009.2
20260903021516 59 291 2.0 7.0 0.00 0.28 0.28 87 1009.2
20260903021008 59 245 2.0 7.0 0.00 0.28 0.28 86 1009.1
20260903020513 59 314 2.0 8.0 0.00 0.28 0.28 86 1009.1
20260903020031 59 297 1.0 8.0 0.00 0.28 0.28 86 1009.1
20260903015513 59 278 2.0 7.0 0.00 0.28 0.28 86 1009.0
20260903015013 59 280 0.0 6.0 0.00 0.28 0.28 87 1008.8
20260903014523 59 297 1.0 6.0 0.01 0.28 0.28 87 1008.7
20260903014021 59 296 0.0 4.0 0.01 0.28 0.28 87 1008.9
20260903013515 59 271 0.0 3.0 0.01 0.28 0.28 87 1008.9
20260903013027 59 277 0.0 4.0 0.01 0.28 0.28 87 1008.8
20260903012518 59 253 1.0 4.0 0.01 0.28 0.28 87 1008.8
20260903012019 59 335 0.0 4.0 0.01 0.28 0.28 87 1008.7
20260903011530 59 278 1.0 4.0 0.01 0.28 0.28 87 1008.7
20260903011009 59 309 1.0 4.0 0.01 0.28 0.28 87 1008.7
20260903010508 59 285 1.0 7.0 0.01 0.28 0.28 87 1008.8
20260903010014 59 299 2.0 7.0 0.01 0.28 0.28 87 1008.7
20260903005512 59 297 2.0 7.0 0.01 0.28 0.28 87 1008.7
20260903005015 59 229 2.0 5.0 0.02 0.28 0.28 87 1008.6
20260903004519 59 295 1.0 5.0 0.01 0.27 0.27 88 1008.6
20260903004010 59 285 2.0 5.0 0.01 0.27 0.27 87 1008.7
20260903003514 59 302 1.0 5.0 0.01 0.27 0.27 87 1008.5
20260903003023 59 309 1.0 6.0 0.01 0.27 0.27 87 1008.3
20260903002519 59 307 2.0 6.0 0.01 0.27 0.27 87 1008.5
20260903002019 59 279 2.0 5.0 0.01 0.27 0.27 88 1008.5
20260903001527 59 184 1.0 6.0 0.01 0.27 0.27 88 1008.5
20260903001017 59 259 2.0 6.0 0.01 0.27 0.27 88 1008.4
20260903000518 59 246 2.0 6.0 0.01 0.27 0.27 88 1008.3
20260903000030 59 313 1.0 6.0 0.01 0.27 0.27 88 1008.4
20260902235517 59 313 1.0 8.0 0.01 0.27 0.27 88 1008.3
20260902235010 59 282 4.0 10.0 0.00 0.26 0.26 87 1008.3
20260902234517 59 298 0.0 10.0 0.00 0.26 0.26 87 1008.2
20260902234011 60 305 2.0 9.0 0.00 0.26 0.26 87 1008.4
20260902233513 60 324 1.0 6.0 0.00 0.26 0.26 87 1008.1
20260902233024 60 172 2.0 6.0 0.00 0.26 0.26 87 1008.0
20260902232513 60 198 1.0 9.0 0.00 0.26 0.26 87 1008.1
20260902232014 60 272 2.0 10.0 0.00 0.26 0.26 86 1008.1
20260902231540 60 300 2.0 10.0 0.00 0.26 0.26 86 1008.0
20260902231017 60 259 2.0 10.0 0.00 0.26 0.26 85 1008.0
20260902230513 60 281 4.0 11.0 0.00 0.26 0.26 85 1007.9
20260902230029 60 282 4.0 11.0 0.00 0.26 0.26 85 1007.8
20260902225521 60 218 2.0 11.0 0.00 0.26 0.26 85 1007.8
20260902225020 60 292 3.0 8.0 0.00 0.26 0.26 85 1007.6
20260902224530 60 262 1.0 6.0 0.00 0.26 0.26 84 1007.7
20260902224016 60 309 1.0 12.0 0.01 0.26 0.26 84 1007.7
20260902223516 61 352 4.0 12.0 0.01 0.26 0.26 83 1007.7
20260902223022 61 201 2.0 13.0 0.01 0.26 0.26 83 1007.7
20260902222516 61 316 2.0 13.0 0.01 0.26 0.26 83 1007.7
20260902222019 60 298 4.0 10.0 0.01 0.26 0.26 84 1007.7
20260902221529 60 295 2.0 6.0 0.01 0.26 0.26 84 1007.7
20260902221013 60 245 1.0 9.0 0.01 0.26 0.26 84 1007.7
20260902220516 60 297 3.0 9.0 0.01 0.26 0.26 84 1007.6
20260902220035 60 310 3.0 6.0 0.01 0.26 0.26 85 1007.5
20260902215515 60 277 2.0 6.0 0.01 0.26 0.26 85 1007.5
20260902215016 59 243 1.0 5.0 0.01 0.26 0.26 86 1007.6
20260902214537 59 285 2.0 5.0 0.01 0.26 0.26 86 1007.6
20260902214018 59 245 1.0 8.0 0.00 0.25 0.25 87 1007.6
20260902213518 59 257 2.0 8.0 0.01 0.25 0.25 87 1007.6
20260902213030 59 294 3.0 8.0 0.01 0.25 0.25 87 1007.6
20260902212518 59 252 2.0 6.0 0.01 0.25 0.25 87 1007.6
20260902212017 59 255 3.0 7.0 0.01 0.25 0.25 88 1007.6
20260902211518 59 232 4.0 7.0 0.02 0.25 0.25 88 1007.6
20260902211012 59 257 2.0 7.0 0.02 0.25 0.25 89 1007.6
20260902210515 59 249 3.0 7.0 0.03 0.25 0.25 89 1007.7
20260902210026 59 114 1.0 5.0 0.05 0.25 0.25 89 1007.6
20260902205516 59 230 3.0 5.0 0.06 0.25 0.25 89 1007.6
20260902205005 59 136 2.0 5.0 0.07 0.25 0.25 89 1007.5
20260902204509 59 153 2.0 6.0 0.07 0.25 0.25 89 1007.5
20260902204004 59 213 1.0 6.0 0.08 0.25 0.25 89 1007.4
20260902203507 59 255 3.0 9.0 0.09 0.24 0.24 89 1007.3
20260902203010 59 183 3.0 9.0 0.10 0.24 0.24 89 1007.3
20260902202510 59 181 3.0 7.0 0.11 0.24 0.24 90 1007.2
20260902202008 59 198 2.0 8.0 0.12 0.24 0.24 89 1007.3
20260902201513 59 227 3.0 8.0 0.11 0.23 0.23 89 1007.3
20260902201010 59 195 3.0 7.0 0.12 0.23 0.23 89 1007.3
20260902200513 59 172 2.0 7.0 0.11 0.22 0.22 89 1007.3
20260902200024 59 216 2.0 6.0 0.10 0.20 0.20 89 1007.3
20260902195514 59 240 2.0 6.0 0.10 0.19 0.19 89 1007.4
20260902195014 59 251 3.0 5.0 0.09 0.18 0.18 89 1007.5
20260902194537 59 219 1.0 3.0 0.10 0.18 0.18 89 1007.5
20260902194015 59 176 1.0 2.0 0.09 0.17 0.17 88 1007.6
20260902193516 59 221 0.0 1.0 0.07 0.15 0.15 88 1007.7
20260902193007 59 204 0.0 2.0 0.06 0.14 0.14 87 1007.9
20260902192506 59 253 0.0 4.0 0.06 0.13 0.13 87 1007.9
20260902192007 59 236 1.0 4.0 0.05 0.12 0.12 87 1007.8
20260902191511 59 252 2.0 4.0 0.05 0.12 0.12 86 1007.7
20260902191007 59 207 1.0 5.0 0.05 0.11 0.11 86 1007.7
20260902190510 59 179 2.0 6.0 0.05 0.11 0.11 85 1007.6
20260902190015 59 254 4.0 8.0 0.05 0.10 0.10 84 1007.7
20260902185511 59 231 3.0 8.0 0.05 0.09 0.09 83 1007.7
20260902185012 59 181 1.0 9.0 0.06 0.09 0.09 84 1007.8
20260902184529 59 255 3.0 9.0 0.05 0.08 0.08 84 1007.8
20260902184014 59 149 2.0 7.0 0.06 0.08 0.08 85 1007.9
20260902183516 59 210 1.0 7.0 0.07 0.08 0.08 84 1008.0
20260902183028 59 224 2.0 5.0 0.07 0.08 0.08 84 1008.2
20260902182516 59 247 2.0 5.0 0.07 0.07 0.07 84 1008.2
20260902182016 60 312 2.0 5.0 0.07 0.07 0.07 83 1008.3
20260902181530 60 269 1.0 5.0 0.07 0.07 0.07 84 1008.4
20260902181008 60 282 0.0 5.0 0.06 0.06 0.06 83 1008.5
20260902180507 60 294 1.0 5.0 0.06 0.06 0.06 82 1008.5
20260902180012 60 289 1.0 5.0 0.05 0.05 0.05 81 1008.5
20260902175508 61 305 1.0 5.0 0.04 0.04 0.04 80 1008.4
20260902175013 61 295 0.0 3.0 0.03 0.03 0.03 79 1008.3
20260902174520 62 29 0.0 3.0 0.03 0.03 0.03 78 1008.2
20260902174015 62 285 0.0 0.0 0.02 0.02 0.02 77 1008.2
20260902173514 63 292 0.0 0.0 0.01 0.01 0.01 74 1008.2
20260902173027 63 301 0.0 0.0 0.01 0.01 0.01 73 1008.1
20260902172514 64 290 0.0 1.0 0.00 0.00 0.00 72 1007.9
20260902172014 64 292 0.0 2.0 0.00 0.00 0.00 69 1007.8
20260902171529 64 302 0.0 3.0 0.00 0.00 0.00 68 1007.7
20260902171018 65 304 1.0 8.0 0.00 0.00 0.00 65 1007.7
20260902170517 65 300 1.0 8.0 0.00 0.00 0.00 64 1007.6
20260902170029 65 302 1.0 5.0 0.00 0.00 0.00 63 1007.6
20260902165518 66 309 2.0 5.0 0.00 0.00 0.00 62 1007.6
20260902165007 66 302 0.0 3.0 0.00 0.00 0.00 61 1007.6
20260902164513 66 217 0.0 8.0 0.00 0.00 0.00 61 1007.5
20260902164011 66 257 0.0 8.0 0.00 0.00 0.00 61 1007.5
20260902163512 66 175 2.0 7.0 0.00 0.00 0.00 61 1007.5
20260902163018 65 259 2.0 7.0 0.00 0.00 0.00 61 1007.5
20260902162511 65 210 3.0 7.0 0.00 0.00 0.00 61 1007.5
20260902162018 65 227 2.0 6.0 0.00 0.00 0.00 63 1007.5
20260902161536 65 223 3.0 6.0 0.00 0.00 0.00 63 1007.5
20260902161016 64 300 1.0 5.0 0.00 0.00 0.00 66 1007.6
20260902160515 64 231 2.0 5.0 0.00 0.00 0.00 66 1007.6